Flag for Spain Weather past 2 weeks in Madrid, Spain

Now
77 °F

Passing clouds.


Feels Like: 79 °F
Forecast: 67 / 96 °F
Wind: 6 mph from East

Location: Madrid / Cuatro Vientos

Current Time: Jul 3, 2015 at 10:14:41 AM

Latest Report: Jul 3, 2015 at 9:30 AM


Visibility: N/A

Pressure: 30.18 "Hg

Humidity: 57%

Dew point: 61 °F

Location of MadridLocation

Historic Weather in Madrid — Graph

°F

Madrid temperature yesterday

Maximum temperature yesterday: 95 °F (at 7:00 PM)
Minimum temperature yesterday: 70 °F (at 7:00 AM)
Average temperature yesterday: 85 °F

Past Weeks' High & Low Weather Summary

 TemperatureHumidityPressure
High104 °F (Jun 29, 4:30 PM)73% (Jun 24, 7:00 AM)30.27 "Hg (Jun 24, 7:00 AM)
Low63 °F (Jun 24, 7:00 AM)9% (Jun 20, 4:30 PM)29.92 "Hg (Jun 23, 6:30 PM)
Average86 °F24%30.10 "Hg
* Reported Jun 18 9:00 AM — Jul 3 9:00 AM, Madrid, Weather by CustomWeather, © 2015

Note: Actual official high and low records may vary slightly from our data, if they occured in-between our weather recording intervals... More about our weather records

Advertising

Madrid weather history for previous 24 hours

 ConditionsComfort  
Time TempWeatherWind HumidityBarometerVisibility
9:00 AM
Fri, Jul 3
75 °FPassing clouds.3 mph57%30.18 "HgN/A
8:30 AM75 °FPassing clouds.3 mph57%30.18 "HgN/A
7:30 AM72 °FClear.5 mph61%30.15 "Hg10 mi
7:00 AM72 °FPassing clouds.3 mph61%30.15 "HgN/A
11:30 PM
Thu, Jul 2
82 °FPassing clouds.5 mph26%30.12 "HgN/A
11:00 PM81 °FClear.6 mph28%30.09 "Hg10 mi
10:30 PM82 °FSunny.No wind26%30.09 "Hg10 mi
10:00 PM84 °FSunny.2 mph25%30.09 "Hg10 mi
9:30 PM90 °FSunny.No wind18%30.09 "Hg10 mi
9:00 PM90 °FSunny.2 mph18%30.09 "Hg10 mi
8:30 PM91 °FSunny.No wind17%30.09 "Hg10 mi
8:00 PM91 °FSunny.2 mph17%30.09 "Hg10 mi
7:30 PM93 °FSunny.2 mph17%30.09 "Hg10 mi
7:00 PM95 °FSunny.No wind14%30.09 "Hg10 mi
6:30 PM93 °FPassing clouds.9 mph16%30.09 "HgN/A
6:00 PM93 °FSunny.3 mph15%30.09 "Hg10 mi
5:30 PM93 °FSunny.3 mph14%30.12 "Hg10 mi
5:00 PM91 °FPassing clouds.8 mph15%30.12 "HgN/A
4:30 PM93 °FSunny.3 mph14%30.12 "Hg10 mi
4:00 PM91 °FSunny.7 mph15%30.12 "Hg10 mi
3:30 PM90 °FPassing clouds.6 mph16%30.12 "HgN/A
3:00 PM90 °FPassing clouds.9 mph18%30.12 "HgN/A
2:30 PM90 °FSunny.5 mph20%30.15 "Hg10 mi
2:00 PM88 °FPassing clouds.6 mph19%30.15 "HgN/A
1:30 PM86 °FPassing clouds.7 mph24%30.15 "HgN/A
1:00 PM86 °FSunny.3 mph24%30.15 "Hg10 mi
12:30 PM84 °FPassing clouds.7 mph25%30.15 "HgN/A
12:00 PM84 °FSunny.5 mph25%30.15 "Hg10 mi
11:30 AM82 °FPassing clouds.5 mph28%30.15 "HgN/A
11:00 AM82 °FPassing clouds.3 mph28%30.15 "HgN/A
10:30 AM81 °FSunny.2 mph30%30.15 "Hg10 mi
10:00 AM77 °FPassing clouds.3 mph36%30.15 "HgN/A
Weather by CustomWeather, © 2015

See weather overviewHow to use our weather pages